カタログに戻る

COSMOS 2478

GLONASS

運用中ナビゲーションMEO
NORAD 37938·PAYLOAD·🇷🇺 Russia

打ち上げ Nov 28, 2011 から Plesetsk Cosmodrome

Loading…

次のパス (今後24時間)

TLE

最新Source: Space-Track

元期: Sep 11, 2026, 19:15 UTC

1 37938U 11071A   26254.80270102 -.00000042  00000-0  00000-0 0  9996
2 37938  65.4082 311.9365 0018491 219.8991 138.0783  2.13015663114987

AllMySatでCOSMOS 2478をリアルタイム追跡

Download on the App Store